星链-1619 (STARLINK-1619 )

导读 | 星芒AI

STARLINK-1619 是 SpaceX 星链计划中的一颗低轨通信卫星,属于第 20 批部署的星链卫星群。该卫星于 2023 年发射,运行在约 550 公里的轨道高度,旨在为全球用户提供高速互联网服务。作为星链星座的一部分,STARLINK-1619 采用先进推进系统和激光通信技术,支持卫星间高速数据传输,提升网络稳定性和覆盖范围。该卫星的部署有助于完善星链的全球网络架构,特别是在偏远和网络基础设施薄弱地区。

基本信息
目录编号:
46126
目录名称:
STARLINK-1619
国际标识:
2020-057K
轨道中心:
EARTH
卫星名称:
星链-1619
卫星全名:
星链-1619 (STARLINK-1619 )
卫星状态:
已陨落 最后检测时间 2025-04-13
发射日期:
2020-08-18 UTC
国别 :
美国 (US)
星等 :
--
轨道信息
数据来源 国际轨道数据
星历时间: 2025-04-13T07:27:19+0800
轨道信息已过期199天
半长轴: 6536.947km
偏心率: 0.0008434
轨道倾角: 53.014°
近地点辐角 292.329°
升交点赤经 280.071°
平近点角 155.185°
近地点: 153.298km
远地点: 164.326km
周期: 87.664分钟
每日圈数: 16.426324
详细信息
固有亮度:
5
最大亮度:
2.5
卫星平台:
Starlink V1.0
覆盖范围:
全球
运营商:
太空探索技术公司
运营商所在国:
美国
制造商(研发单位):
太空探索技术公司
制造商所在国:
美国
使用方式:
暂无
卫星简介
星链(Starlink)计划是由太空探索技术公司(SpaceX)提出的一个巨型低轨卫星互联网星座项目,计划在2019年至2024年间在太空搭建由约1.2万颗卫星组成的“星链”网络,其中1584颗将部署在地球上空550千米处的近地轨道,并从2020年开始工作。该卫星仍在工作。